Regional Weather Roundup
Issued by NWS Charleston, WV

Home | Current Version | Previous Version | Graphics & Text | Print | Product List | Glossary On
Versions: 1 2 3 4 5 6 7 8 9 10 11 12 13 14 15 16 17 18 19 20 21 22 23 24 25 26 27
000
ASUS41 KRLX 220110
RWRRLX
West Virginia Regional Weather Roundup
National Weather Service Charleston WV
900 PM EDT THU SEP 21 2017

Note: "fair" indicates few or no clouds below 12,000 feet with no
significant weather and/or obstructions to visibility.

WVZ003-220200-
Northern Panhandle of West Virginia

CITY           SKY/WX    TMP DP  RH WIND       PRES   REMARKS
WHEELING       CLEAR     72  65  78 E3        30.10R
$$

WVZ009-220200-
Northwest West Virginia

CITY           SKY/WX    TMP DP  RH WIND       PRES   REMARKS
PARKERSBURG    CLEAR     72  68  87 CALM      30.10R
$$

WVZ006-220200-
Western West Virginia

CITY           SKY/WX    TMP DP  RH WIND       PRES   REMARKS
HUNTINGTON     CLEAR     74  67  78 CALM      30.06R
$$

WVZ015-220200-
West Central West Virginia

CITY           SKY/WX    TMP DP  RH WIND       PRES   REMARKS
CHARLESTON     PTCLDY    72  67  84 CALM      30.07R
$$

WVZ022-031-220200-
North Central West Virginia

CITY           SKY/WX    TMP DP  RH WIND       PRES   REMARKS
CLARKSBURG     CLEAR     70  63  78 CALM      30.10R
MORGANTOWN     CLEAR     71  63  75 CALM      30.11R
$$

WVZ025-035-042-045-220200-
Southern West Virginia

CITY           SKY/WX    TMP DP  RH WIND       PRES   REMARKS
BECKLEY        CLEAR     67  63  87 CALM      30.14S
LOGAN            N/A     73  64  73 CALM      30.10R
BLUEFIELD      PTCLDY    68  60  75 CALM      30.17R
LEWISBURG      CLOUDY    70  62  74 N3        30.14R
$$

WVZ047-220200-
Northern Mountains of West Virginia

CITY           SKY/WX    TMP DP  RH WIND       PRES   REMARKS
ELKINS         CLEAR     63  59  87 CALM      30.15R
$$

WVZ052-220200-
Eastern Panhandle of West Virginia

CITY           SKY/WX    TMP DP  RH WIND       PRES   REMARKS
MARTINSBURG    CLEAR     68  60  75 CALM      30.05R
PETERSBURG     CLEAR     68  63  84 W3        30.09R
$$




USA.gov is the U.S. government's official web portal to all federal, state and local government web resources and services.